Location: Newark
(42.9575°N, 2.5653°E)
Time: 05:49:34
(UTC+00:00)

Envisat - Visible Passes

Search period start: 20 January 2020 00:00
Search period end: 30 January 2020 00:00
Orbit: 764 x 766 km, 98.1° (Epoch: 19 January)

Date Brightness Start Highest point End Pass type
(mag) Time Alt. Az. Time Alt. Az. Time Alt. Az.
20 Jan 4.6 05:59:58 10° NNE 06:04:44 39° E 06:09:27 10° SSE visible
20 Jan 3.1 17:15:12 10° SSE 17:20:09 56° ENE 17:25:07 10° N visible
20 Jan 5.8 18:56:05 10° SW 18:59:31 18° W 19:02:58 10° NW visible
21 Jan 5.9 05:24:14 10° NE 05:27:40 18° E 05:31:05 10° SE visible
21 Jan 4.5 18:17:43 10° SSW 18:22:27 39° W 18:27:13 10° NNW visible
22 Jan 3.5 06:25:13 10° NNE 06:30:18 68° ESE 06:35:21 10° S visible
22 Jan 3.1 17:40:30 10° SSE 17:45:35 86° WSW 17:50:42 10° NNW visible
23 Jan 5.0 05:48:53 10° NNE 05:53:22 31° E 05:57:50 10° SSE visible
23 Jan 5.5 18:44:10 10° SW 18:48:07 23° W 18:52:06 10° NW visible
24 Jan 6.2 05:13:35 10° ENE 05:16:15 14° E 05:18:54 10° ESE visible
24 Jan 4.0 18:06:13 10° S 18:11:07 49° W 18:16:03 10° NNW visible
25 Jan 3.9 06:14:00 10° NNE 06:18:59 54° E 06:23:56 10° S visible
25 Jan 3.0 17:29:15 10° SSE 17:34:18 76° ENE 17:39:24 10° N visible
25 Jan 6.2 19:11:37 10° WSW 19:13:53 13° W 19:16:11 10° WNW visible
26 Jan 5.5 05:37:51 10° NE 05:42:00 25° E 05:46:07 10° SSE visible
26 Jan 5.1 18:32:23 10° SSW 18:36:44 28° W 18:41:07 10° NW visible
27 Jan 6.4 05:03:31 10° ENE 05:04:48 11° E 05:06:05 10° ESE visible
27 Jan 3.6 17:54:46 10° S 17:59:47 62° WSW 18:04:51 10° NNW visible
28 Jan 4.4 06:02:49 10° NNE 06:07:40 42° E 06:12:27 10° S visible
28 Jan 3.0 17:18:03 10° SSE 17:23:02 61° ENE 17:28:03 10° N visible
28 Jan 6.0 18:59:17 10° SW 19:02:28 17° W 19:05:39 10° NW visible
29 Jan 5.8 05:26:56 10° NE 05:30:36 20° E 05:34:15 10° SE visible
29 Jan 4.7 18:20:44 10° SSW 18:25:22 36° W 18:30:03 10° NNW visible
